Regional Weather Roundup
Issued by NWS Midland/Odessa, TX

Skip options and go directly to product.
Home | Oldest Version | Previous Version | Current Version | All | Graphics & Text | Save Text | Print | Product List | Glossary On

Skip product version selection by date and time.   
137
ASUS44 KMAF 311910
RWRMAF
MIDLAND AREA WEATHER ROUNDUP
NATIONAL WEATHER SERVICE MIDLAND TX
100 PM CST SAT JAN 31 2015

...IN SOUTHWEST TEXAS AND SOUTHEAST NEW MEXICO...

CITY           SKY/WX    TMP DP  RH WIND       PRES   REMARKS
ALPINE         PTSUNNY   60  46  61 SW16G25   29.98F
ANDREWS        CLOUDY    46  46 100 S8        29.94F
ARTESIA        CLOUDY    43  43 100 CALM      29.94F
BIG SPRING     CLOUDY    50  48  92 S9        29.98F
CARLSBAD       CLOUDY    45  41  86 N8        29.92F
DRYDEN           N/A     51  50  96 E8        29.95F
FORT STOCKTON  CLOUDY    59  50  72 S15       29.90F
GUAD PASS      FOG       46  45  96 W17       29.93F VSB 1/4 WCI  39
HOBBS          FOG       43  43 100 SE7       29.94F VSB 1/4 WCI  39
MARFA          PTSUNNY   57  48  72 S15G24    29.95F
MIDLAND AIRPK  CLOUDY    49  49 100 S15       29.95F FOG
MIDLAND INTL   CLOUDY    49  48  97 S14       29.94F FOG
ODESSA         CLOUDY    48  46  93 S16       29.94F FOG
PECOS          CLOUDY    49  45  86 CALM      29.93F
PRESIDIO       FAIR      61  52  73 SE6       29.91F
SEMINOLE       CLOUDY    43  43 100 S6        29.95F WCI  39
SNYDER         CLOUDY   N/A N/A N/A SE9       29.96F
WINK           CLOUDY    50  45  83 SE7       29.91F
$$
...OTHER STATIONS IN TEXAS...

CITY           SKY/WX    TMP DP  RH WIND       PRES   REMARKS
ABILENE        LGT RAIN  47  45  93 SE13      30.00F FOG
AMARILLO       CLOUDY    36  35  96 S9        29.94F WCI  29
AUSTIN         CLOUDY    57  52  83 SE10      30.05F
BROWNSVILLE    CLOUDY    75  61  61 SE23G30   30.03F
CORPUS CHRISTI CLOUDY    73  63  70 SE25G31   30.03F
DALLAS FTW     LGT RAIN  52  37  56 SE12      30.09F
DEL RIO        LGT RAIN  52  51  97 S6        29.99F FOG
EL PASO        PTSUNNY   51  46  83 CALM      29.90F
HOUSTON INT    PTSUNNY   62  50  64 SE12      30.13F
LUBBOCK        LGT RAIN  41  40  96 S12       29.94F FOG     WCI  34
SAN ANGELO     CLOUDY    53  51  93 SE5       29.97F
SAN ANTONIO    LGT RAIN  55  54  96 E6        30.04F VSB 1/2
WACO           CLOUDY    50  41  71 SE7       30.09F
WICHITA FALLS  NOT AVBL
$$
...OTHER LOCATIONS IN NEW MEXICO...

CITY           SKY/WX    TMP DP  RH WIND       PRES   REMARKS
ALAMAGORDO     LGT RAIN  45  45 100 CALM      29.93F
ALBUQUERQUE    CLOUDY    36  35  96 NW5       29.93F FOG     WCI  32
CANNON AFB     LGT RAIN  37  37  99 CALM      29.92F
CLOVIS         CLOUDY    36  36 100 S10       29.92F WCI  28
HOLLOMAN AFB   CLOUDY    45  45 100 CALM      29.90F
ROSWELL        CLOUDY    42  38  85 S3        29.92F
RUIDOSO        PTSUNNY   45  45 100 SW16G30   29.91F WCI  37
SANTA FE       LGT SNOW  32  28  85 SE7       29.90F FOG     WCI  26
TRUTH OR CONSE LGT RAIN  45  42  89 S6        29.90F
TUCUMCARI      CLOUDY    40  37  89 SW10      29.91F WCI  33
$$

USA.gov is the U.S. government's official web portal to all federal, state and local government web resources and services.